Location: ???????
(55.5931°N, 39.3286°E)
Time: 20:07:28
(UTC+00:00)

Cosmos 2297 - Visible Passes

Search period start: 12 July 2024 00:00
Search period end: 22 July 2024 00:00
Orbit: 835 x 858 km, 71.0° (Epoch: 12 July)

Date Brightness Start Highest point End Pass type
(mag) Time Alt. Az. Time Alt. Az. Time Alt. Az.
12 Jul 4.7 21:45:13 16° SSE 21:49:11 34° ESE 21:54:18 10° NE visible
12 Jul 4.1 23:27:25 10° SW 23:33:07 62° NW 23:38:48 10° NNE visible
13 Jul 4.7 21:31:48 16° SSE 21:35:35 34° ESE 21:40:40 10° NE visible
13 Jul 4.1 23:13:48 10° SW 23:19:30 63° NW 23:25:11 10° NNE visible
14 Jul 4.7 21:18:20 17° SSE 21:22:00 33° ESE 21:27:03 10° NE visible
14 Jul 4.1 23:00:14 10° SW 23:05:53 64° NW 23:11:35 10° NNE visible
15 Jul 4.7 21:04:51 17° SSE 21:08:25 32° ESE 21:13:26 10° NE visible
15 Jul 4.0 22:46:45 11° SW 22:52:16 65° NW 22:57:58 10° NNE visible
16 Jul 4.7 20:51:20 17° SSE 20:54:49 32° ESE 20:59:49 10° NE visible
16 Jul 4.0 22:33:13 11° SW 22:38:40 66° NW 22:44:22 10° NNE visible
17 Jul 4.7 20:37:46 17° SSE 20:41:14 31° ESE 20:46:11 10° NE visible
17 Jul 4.0 22:19:39 12° SW 22:25:03 67° NW 22:30:46 10° NNE visible
18 Jul 5.6 00:05:36 10° W 00:10:16 25° NNW 00:14:55 10° NNE visible
18 Jul 4.7 20:24:09 17° SSE 20:27:39 31° ESE 20:32:34 10° NE visible
18 Jul 4.0 22:06:02 12° SW 22:11:27 68° NW 22:17:10 10° NNE visible
18 Jul 5.6 23:51:58 10° W 23:56:39 25° NNW 00:01:19 10° NNE visible
19 Jul 4.7 20:10:31 16° SSE 20:14:03 30° ESE 20:18:57 10° NE visible
19 Jul 4.0 21:52:23 11° SW 21:57:50 69° NW 22:03:33 10° NNE visible
19 Jul 5.6 23:38:19 10° W 23:43:01 25° NNW 23:47:43 10° NNE visible
20 Jul 4.7 19:56:48 15° SSE 20:00:28 29° ESE 20:05:19 10° NE visible
20 Jul 4.0 21:38:40 11° SW 21:44:14 70° NW 21:49:58 10° NNE visible
20 Jul 5.6 23:24:41 10° W 23:29:24 26° NNW 23:34:06 10° NNE visible
21 Jul 4.7 19:43:02 14° SSE 19:46:53 29° ESE 19:51:42 10° NE visible
21 Jul 3.9 21:24:54 10° SW 21:30:38 71° NW 21:36:21 10° NNE visible
21 Jul 5.6 23:11:02 10° W 23:15:46 26° NNW 23:20:30 10° NNE visible
